Meteo Giornale » Osservazioni meteo Croazia » Zagreb-Pleso

ore: 13:30 - Osservazioni Meteo Zagreb-Pleso
Lat. 45° 44' N Lon. 16° 4' E Alt. 106 metri s.l.m.

sereno Europe/Zagreb

27 °C

Sereno

Temp. 24 Ore

20 °C

30 °C

Nord

1.8 Km/h

Dew point 19 °C

Umidità 61 %

Visibilità  10 Km

Il sole sorge alle ore 05:40

Il sole tramonta alle ore 20:22

Data e Ora Cielo e Fenomeni T °C DP °C Um. % Pres. hPa Vis. km Vento km/h
Oggi h: 13:30 sereno Sereno 27 19 61 1007 10 N 1.8
Oggi h: 13:00 sereno Sereno 26 18 61 1007 10 N 0
Oggi h: 12:30 poco_nuvoloso Poco Nuvoloso 25 18 65 1008 10 N 3.7
Oggi h: 12:00 poco_nuvoloso Poco Nuvoloso 24 19 73 1008 10 N 1.8
Oggi h: 11:30 sereno Sereno 23 18 73 1008 10 N 3.7
Oggi h: 11:00 sereno Sereno 23 18 73 1008 10 N 5.5
Oggi h: 10:30 poco_nuvoloso Poco Nuvoloso 23 18 73 1008 10 N 0
Oggi h: 10:00 poco_nuvoloso Poco Nuvoloso 22 17 73 1008 10 N 5.5
Oggi h: 09:30 poco_nuvoloso Poco Nuvoloso 20 18 88 1008 10 E 9.3
Oggi h: 09:00 coperto_pioggia Pioggia Debole 20 18 88 1008 10 N 3.7
Oggi h: 08:30 coperto_pioggia Pioggia 20 18 88 1009 10 E/SE 7.4
Oggi h: 08:00 coperto_pioggia Pioggia 20 18 88 1010 10 NO 7.4
Oggi h: 07:30 nuvoloso_temporali Temporale nelle Vicinanze 21 17 77 1010 10 O 24
Oggi h: 07:00 sereno Sereno 20 16 77 1008 10 NE 9.3
Oggi h: 06:30 sereno Sereno 20 16 77 1008 10 NE 11.1
Oggi h: 06:00 sereno Sereno 20 16 77 1008 10 N 5.5
Oggi h: 05:00 sereno Sereno 20 16 77 1008 10 N 3.7
Oggi h: 04:30 sereno Sereno 20 16 77 1009 10 N 3.7
Oggi h: 04:00 sereno Sereno 21 17 77 1009 10 N 5.5
Oggi h: 03:30 sereno Sereno 21 17 77 1009 10 NE 7.4
Oggi h: 03:00 sereno Sereno 21 17 77 1009 10 NE 7.4
Oggi h: 02:30 sereno Sereno 21 17 77 1010 10 NE 9.3
Oggi h: 02:00 sereno Sereno 22 17 73 1010 10 N 5.5
Oggi h: 01:30 sereno Sereno 22 18 78 1010 10 N/NE 7.4
Oggi h: 01:00 sereno Sereno 22 20 88 1010 10 N 0
Oggi h: 00:30 sereno Sereno 22 20 88 1010 10 N 0
Oggi h: 00:00 sereno Sereno 23 20 83 1011 10 N 3.7
Ieri h: 23:30 sereno Sereno 23 20 83 1011 10 N 3.7
Ieri h: 23:00 sereno Sereno 24 19 73 1010 10 N 1.8
Ieri h: 22:30 sereno Sereno 24 19 73 1010 10 N 0
Ieri h: 22:00 sereno Sereno 24 18 69 1011 10 N 0
Ieri h: 21:30 sereno Sereno 24 19 73 1011 10 N 0
Ieri h: 21:00 sereno Sereno 25 18 65 1010 10 N 3.7
Ieri h: 20:30 sereno Sereno 25 19 69 1010 10 N/NE 7.4
Ieri h: 20:00 sereno Sereno 26 19 65 1010 10 N/NE 7.4
Ieri h: 19:30 sereno Sereno 26 17 57 1010 10 N 5.5
Ieri h: 19:00 sereno Sereno 27 18 57 1011 10 E/NE 7.4
Ieri h: 18:30 sereno Sereno 27 17 54 1011 10 E/NE 7.4
Ieri h: 18:00 sereno Sereno 27 17 54 1011 10 E/NE 9.3
Ieri h: 17:30 sereno Sereno 28 17 51 1011 10 E/NE 9.3
Ieri h: 17:00 sereno Sereno 28 16 48 1012 10 E 7.4
Ieri h: 16:30 sereno Sereno 29 17 48 1012 10 E 7.4
Ieri h: 16:00 sereno Sereno 30 18 48 1012 10 E 7.4
Ieri h: 15:30 sereno Sereno 30 17 45 1012 10 E 9.3
Ieri h: 15:00 sereno Sereno 30 18 48 1012 10 E 7.4